Regional Weather Roundup
Issued by NWS Sioux Falls, SD

Home | Current Version | Previous Version | Text Only | Print | Product List | Glossary On
Versions: 1 2 3 4 5 6 7 8 9 10 11 12 13 14 15 16 17 18 19 20 21 22 23 24 25 26 27 28 29 30 31 32 33 34 35 36 37 38 39 40 41 42 43 44 45 46 47 48 49 50
000
ASUS43 KFSD 221210
RWRFSD

WEATHER ROUNDUP FOR SE SOUTH DAKOTA/SW MINNESOTA/NW IOWA
NATIONAL WEATHER SERVICE SIOUX FALLS SD
700 AM CDT WED OCT 22 2014

NOTE: "FAIR" INDICATES FEW OR NO CLOUDS BELOW 12,000 FEET WITH NO
SIGNIFICANT WEATHER AND OR OBSTRUCTIONS TO VISIBILITY.


SDZ038>040-050-052>070-221300-
SOUTHEAST SOUTH DAKOTA

CITY           SKY/WX    TMP DP  RH WIND       PRES   REMARKS
CHAMBERLAIN    PTCLDY    59  51  75 S10G16    29.84R
6HR MIN TEMP:  58; 6HR MAX TEMP:  62;

HURON          PTCLDY    55  42  61 S20G26    29.85F
6HR MIN TEMP:  55; 6HR MAX TEMP:  60;

MADISON        FAIR      50  45  81 S16G29    29.96S
MITCHELL       CLEAR     55  43  63 SE21G28   29.90S
6HR MIN TEMP:  55; 6HR MAX TEMP:  61;

SIOUX FALLS    PTCLDY    53  44  71 S13G23    30.00S
6HR MIN TEMP:  52; 6HR MAX TEMP:  55;

WINNER         FAIR      62  53  72 SW17      29.86R
YANKTON        CLEAR     54  43  66 SE12G18   29.98S
$$

MNZ071-072-080-081-089-090-097-098-221300-
SOUTHWEST MINNESOTA

CITY           SKY/WX    TMP DP  RH WIND       PRES   REMARKS
FAIRMONT       PTCLDY    45  36  70 SE18      30.15S
JACKSON        PTCLDY    46  37  71 S16G22    30.11S
LUVERNE        PTCLDY    54  43  66 S18       30.04S
MARSHALL       MOCLDY    54  39  58 S23       30.00F
6HR MIN TEMP:  52; 6HR MAX TEMP:  54;

MONTEVIDEO     PTCLDY    48  41  76 S14G24    30.01F
PIPESTONE      PTCLDY    52  43  71 S14       30.01S
REDWOOD FALLS  MOCLDY    47  38  71 SE23      30.07F
TRACY          MOCLDY    51  41  69 S22G29    30.02F
WINDOM         PTCLDY    46  39  76 SE15      30.10S
WORTHINGTON    MOCLDY    48  39  71 S17G26    30.07F
$$

IAZ001>003-012>014-020>022-031-032-NEZ013-014-SDZ071-221300-
NORTHWEST IOWA

CITY           SKY/WX    TMP DP  RH WIND       PRES   REMARKS
CHEROKEE       PTCLDY    49  43  81 S7        30.10S
DENISON        CLOUDY    52  43  71 SE8G18    30.10S
ESTHERVILLE    CLOUDY    44  38  79 SE18      30.13F
LE MARS        PTCLDY    54  45  71 S15       30.06R
ORANGE CITY    PTCLDY    54  45  71 SE10      30.06R
SHELDON        PTCLDY    50  43  76 S17G28    30.06S
SIOUX CITY     CLEAR     54  44  69 SE14      30.06S
6HR MIN TEMP:  50; 6HR MAX TEMP:  55;

SPENCER        MOCLDY    49  40  71 SE16G24   30.11F
6HR MIN TEMP:  47; 6HR MAX TEMP:  50;

STORM LAKE     PTCLDY    46  41  81 SE18      30.11F
$$

ABBREVIATIONS USED IN REMARKS
   TC - TEMPERATURE IN CELSIUS
  WCI - WIND CHILL INDEX
   HX - HEAT INDEX
  VSB - VISIBILITY




USA.gov is the U.S. government's official web portal to all federal, state and local government web resources and services.